STARLINK-1611, 46147

Orbit data source: Space-Track

STARLINK-1611, 46147 is a payload satellite owned by SpaceX/Seattle (US) in LEO that was launched on Tue, 18 Aug 2020 UTC via an FALCON 9 launch vehicle from the Air Force Eastern Test Range (AFETR). Payloads include a variety of satellites, spacecraft, and rockets equipped with specific instruments for various scientific and technological missions. These include communications satellites like Starlink; space stations such as the ISS; scientific satellites like the Hubble; Earth observation satellites from companies like Planet Labs, Umbra, and HawkEye 360; GPS; miniature CubeSats for education and research; and military/defense satellites.

Loading next visibility...
STARLINK-1611 details
Identifier
46147, 2020-057AG
Orbit
LEO
Last TLE update7 hours ago
Origin
Flag of USSpaceX/Seattle (US)
ManufacturerSpaceX/Seattle
MissionPartially operational Commercial Communications
Bus & MotorSTARLINK, Unknown motor
Mass260 kg wet, ~248 kg dry
Launch date (UTC)
2020-08-18 (4 years ago)
Launch vehicle
FALCON 9
Launch site
Air Force Eastern Test Range (AFETR)
Object type
Payload
Rocket body
Debris
Shape & HBRBox + 1 Pan, 8.86 m
Radar Cross Section13.562 m², Large (>1 m²)

Expand to show TLE details & history

TLE from 7 hours ago
0 STARLINK-1611
1 46147U 20057AG  24361.25001157  .00312231  00000-0  19039-2 0  9999
2 46147  53.0467 107.5282 0007776 356.7218 302.4816 15.75952481  5896
Epoch: 2024-12-26T06:00Z
Definitive object data (Epoch: 2024-12-26T06:00:00.999Z)
Latitude-44.46822°
Longitude-124.95563°
Altitude354.103 km
Speed7.698 km/s
True Right ascension04h 01m 07s
True Declination-44° 17' 10"
Sunlit
Object was in daylight at TLE epoch
Visualization TLE readout
Latitude-1.35373°
Longitude101.82583°
Altitude347.675 km
Speed7.699 km/s
Apparent Right ascension21h 18m 16s
Apparent Declination-25° 13' 12"
Sunlit
Object is in daylight
Visualization observer readout
Local Sidereal Time12:28:22
Azimuth84.422° E
Elevation-47.897°
Doppler factor1
Orbital elements
Apogee altitude347.428 km
Perigee altitude336.976 km
Semi-major axis6,720.339 km
Eccentricity0.0007776
Inclination53.0467°
RAAN107.5282°
Arg. of periapsis356.7218°
True anomaly302.40639°
Mean anomaly302.4816°
Eccentric anomaly302.444°
Mean motion3.93964 °/min
BSTAR0.0019039
Orbital period91.38 mins
Loading maneuver chart data...
Loading historical data...
Loading historical data...
Loading historical data...
Loading historical data...
Loading historical data...
Loading historical data...
Loading historical data...

STARLINK-1611 Visibility forecast

Observer location: undefined°, undefined

Span
Click to sort rows by Start time (UTC) header in descending order
Start Az.
Max El. time (UTC)
Max El. Az.
Max El.
End time (UTC)
End Az.
4 mins2024-12-27 09:50:45.314Z221.674° SW2024-12-27 09:51:45.314Z204.752° SW41.196°2024-12-27 09:54:45.314Z52.922° ENE
|